TimeEDT,TemperatureF,Dew PointF,Humidity,Sea Level PressureIn,VisibilityMPH,Wind Direction,Wind SpeedMPH,Gust SpeedMPH,PrecipitationIn,Events,Conditions,WindDirDegrees,DateUTC
12:53 AM,39.9,37.9,93,30.25,7.0,Calm,Calm,-,N/A,,Clear,0,2011-11-01 04:53:00
1:31 AM,39.2,37.4,93,30.23,2.5,East,3.5,-,N/A,,Clear,90,2011-11-01 05:31:00
1:39 AM,39.2,37.4,93,30.23,1.8,Calm,Calm,-,N/A,,Clear,0,2011-11-01 05:39:00
1:43 AM,39.2,37.4,93,30.23,3.0,Calm,Calm,-,N/A,,Clear,0,2011-11-01 05:43:00
1:53 AM,39.9,37.0,89,30.25,8.0,Calm,Calm,-,N/A,,Clear,0,2011-11-01 05:53:00
2:53 AM,37.9,36.0,93,30.27,4.0,Calm,Calm,-,N/A,,Clear,0,2011-11-01 06:53:00
3:07 AM,37.4,35.6,93,30.25,1.5,Calm,Calm,-,N/A,,Clear,0,2011-11-01 07:07:00
3:16 AM,37.4,35.6,93,30.25,0.5,Calm,Calm,-,N/A,Fog,Fog,0,2011-11-01 07:16:00
3:26 AM,35.6,33.8,93,30.26,1.2,Calm,Calm,-,N/A,,Partly Cloudy,0,2011-11-01 07:26:00
3:53 AM,37.0,34.0,89,30.27,2.0,SE,3.5,-,N/A,,Partly Cloudy,130,2011-11-01 07:53:00
4:02 AM,37.4,35.6,93,30.26,4.0,Calm,Calm,-,N/A,,Clear,0,2011-11-01 08:02:00
4:18 AM,35.6,33.8,93,30.25,2.0,ESE,3.5,-,N/A,,Clear,120,2011-11-01 08:18:00
4:31 AM,35.6,33.8,93,30.26,5.0,Calm,Calm,-,N/A,,Clear,0,2011-11-01 08:31:00
4:53 AM,36.0,34.0,93,30.28,5.0,Calm,Calm,-,N/A,,Clear,0,2011-11-01 08:53:00
5:10 AM,35.6,33.8,93,30.26,1.8,Calm,Calm,-,N/A,,Clear,0,2011-11-01 09:10:00
5:20 AM,35.6,33.8,93,30.26,0.5,Calm,Calm,-,N/A,Fog,Fog,0,2011-11-01 09:20:00
5:31 AM,35.6,33.8,93,30.27,1.5,Calm,Calm,-,N/A,,Clear,0,2011-11-01 09:31:00
5:37 AM,35.6,33.8,93,30.27,3.0,Calm,Calm,-,N/A,,Clear,0,2011-11-01 09:37:00
5:43 AM,35.6,33.8,93,30.27,1.8,Calm,Calm,-,N/A,,Clear,0,2011-11-01 09:43:00
5:53 AM,34.0,33.1,96,30.30,0.5,Calm,Calm,-,N/A,Fog,Fog,0,2011-11-01 09:53:00
6:05 AM,35.6,33.8,93,30.27,2.0,Calm,Calm,-,N/A,,Clear,0,2011-11-01 10:05:00
6:13 AM,35.6,33.8,93,30.27,4.0,Calm,Calm,-,N/A,,Clear,0,2011-11-01 10:13:00
6:53 AM,33.1,32.0,96,30.30,1.8,Calm,Calm,-,N/A,,Clear,0,2011-11-01 10:53:00
7:07 AM,32.0,30.2,93,30.28,5.0,Calm,Calm,-,N/A,Fog,Light Freezing Fog,0,2011-11-01 11:07:00
7:23 AM,32.0,30.2,93,30.29,2.5,Calm,Calm,-,N/A,Fog,Light Freezing Fog,0,2011-11-01 11:23:00
7:28 AM,32.0,30.2,93,30.29,0.8,Calm,Calm,-,N/A,Fog,Light Freezing Fog,0,2011-11-01 11:28:00
7:32 AM,32.0,30.2,93,30.29,0.5,Calm,Calm,-,N/A,Fog,Light Freezing Fog,0,2011-11-01 11:32:00
7:45 AM,30.2,30.2,100,30.30,1.0,Calm,Calm,-,N/A,Fog,Light Freezing Fog,0,2011-11-01 11:45:00
7:53 AM,32.0,30.0,92,30.33,1.5,Calm,Calm,-,N/A,Fog,Light Freezing Fog,0,2011-11-01 11:53:00
7:56 AM,32.0,30.2,93,30.30,3.0,Calm,Calm,-,N/A,Fog,Light Freezing Fog,0,2011-11-01 11:56:00
7:59 AM,32.0,30.2,93,30.31,1.8,Calm,Calm,-,N/A,Fog,Light Freezing Fog,0,2011-11-01 11:59:00
8:08 AM,32.0,30.2,93,30.31,0.8,Calm,Calm,-,N/A,Fog,Patches of Fog,0,2011-11-01 12:08:00
8:13 AM,32.0,30.2,93,30.31,2.0,Calm,Calm,-,N/A,Fog,Patches of Fog,0,2011-11-01 12:13:00
8:29 AM,33.8,32.0,93,30.32,1.0,Calm,Calm,-,N/A,Fog,Patches of Fog,0,2011-11-01 12:29:00
8:38 AM,33.8,33.8,100,30.32,1.0,Calm,Calm,-,N/A,Fog,Patches of Fog,0,2011-11-01 12:38:00
8:45 AM,33.8,33.8,100,30.32,0.8,Calm,Calm,-,N/A,Fog,Patches of Fog,0,2011-11-01 12:45:00
8:53 AM,33.8,33.8,100,30.32,0.5,Calm,Calm,-,N/A,Fog,Patches of Fog,0,2011-11-01 12:53:00
8:58 AM,35.6,33.8,93,30.33,2.0,Calm,Calm,-,N/A,Fog,Patches of Fog,0,2011-11-01 12:58:00
9:06 AM,35.6,35.6,100,30.33,4.0,Calm,Calm,-,N/A,Fog,Patches of Fog,0,2011-11-01 13:06:00
9:53 AM,42.1,37.9,85,30.35,9.0,Calm,Calm,-,N/A,Fog,Patches of Fog,0,2011-11-01 13:53:00
10:53 AM,48.0,39.9,74,30.35,10.0,Calm,Calm,-,N/A,Fog,Patches of Fog,0,2011-11-01 14:53:00
11:53 AM,50.0,37.0,61,30.36,10.0,Calm,Calm,-,N/A,Fog,Patches of Fog,0,2011-11-01 15:53:00
12:53 PM,54.0,36.0,51,30.34,10.0,Calm,Calm,-,N/A,Fog,Patches of Fog,0,2011-11-01 16:53:00
1:53 PM,55.4,33.8,44,30.31,10.0,Calm,Calm,-,N/A,Fog,Patches of Fog,0,2011-11-01 17:53:00
2:53 PM,57.9,32.0,37,30.31,10.0,Calm,Calm,-,N/A,Fog,Patches of Fog,0,2011-11-01 18:53:00
3:53 PM,57.9,30.0,35,30.30,10.0,Calm,Calm,-,N/A,Fog,Patches of Fog,0,2011-11-01 19:53:00
4:53 PM,57.2,30.2,36,30.29,10.0,West,3.5,-,N/A,,Clear,280,2011-11-01 20:53:00
5:53 PM,57.0,30.9,37,30.31,10.0,Calm,Calm,-,N/A,,Clear,0,2011-11-01 21:53:00
6:53 PM,48.9,32.0,52,30.32,10.0,ESE,3.5,-,N/A,,Clear,120,2011-11-01 22:53:00
7:53 PM,46.4,33.8,62,30.31,10.0,South,3.5,-,N/A,,Clear,190,2011-11-01 23:53:00
8:53 PM,45.0,32.0,60,30.33,10.0,Calm,Calm,-,N/A,,Clear,0,2011-11-02 00:53:00
9:53 PM,43.0,33.1,68,30.33,10.0,Calm,Calm,-,N/A,,Clear,0,2011-11-02 01:53:00
10:53 PM,44.1,32.0,63,30.34,10.0,Calm,Calm,-,N/A,,Clear,0,2011-11-02 02:53:00
11:53 PM,39.0,33.1,79,30.33,10.0,Calm,Calm,-,N/A,,Clear,0,2011-11-02 03:53:00